Regional Weather Roundup
Issued by NWS Newport/Morehead, NC

Current Version | Previous Version | Graphics & Text | Print | Product List | Glossary Off
Versions: 1 2 3 4 5 6 7 8 9 10 11 12 13 14 15 16 17 18 19 20 21 22 23 24 25 26 27 28 29 30 31 32 33 34 35 36 37 38 39 40 41 42 43 44 45 46 47 48 49 50
000 ASUS42 KMHX 290312 RWRMHX WEATHER ROUNDUP FOR EASTERN NORTH CAROLINA NATIONAL WEATHER SERVICE NEWPORT/MOREHEAD CITY NC 1100 PM EDT SAT MAR 28 2015 NOTE: "FAIR" INDICATES FEW OR NO CLOUDS BELOW 12,000 FEET WITH NO SIGNIFICANT WEATHER AND/OR OBSTRUCTIONS TO VISIBILITY NCZ015>017-031-032-045>047-102-103-290400- NORTH COAST CITY SKY/WX TMP DP RH WIND PRES REMARKS EDENTON CLEAR 34 21 59 N15 30.23R ELIZABETH CITY CLEAR 34 20 56 N16 30.23R KITTY HAWK CLEAR 36 21 53 N10G18 30.20R MANTEO CLEAR 38 21 50 NE18G25 30.20R $$ NCZ045>047-081-094-103-104-290400- CENTRAL COAST CITY SKY/WX TMP DP RH WIND PRES REMARKS FRISCO CLEAR 39 21 48 VRB6 30.19S SWANQUARTER N/A 32 N/A N/A N1 30.18R $$ NCZ095-097-098-100-101-290400- SOUTHERN COAST CITY SKY/WX TMP DP RH WIND PRES REMARKS BEAUFORT CLEAR 37 23 56 N6 30.20R CEDAR ISLAND N/A 43 N/A N/A NW15 30.24S JACKSONVILLE CLEAR 39 21 48 N6 30.21R PINEY ISLAND CLEAR N/A N/A N/A N9 30.20R WILMINGTON CLEAR 41 24 51 CALM 30.21R $$ NCZ011>013-027>030-043-044-078>080-089-090>093-098-290400- COASTAL PLAIN CITY SKY/WX TMP DP RH WIND PRES REMARKS AHOSKIE CLEAR 32 16 52 N3 30.25R CLINTON CLEAR 39 20 47 N7 30.24R ELIZABETHTOWN CLEAR 37 27 66 CALM 30.21R GOLDSBORO CLEAR 38 19 47 N8 30.22R GREENVILLE CLEAR 36 18 48 NW3 30.24R HAVELOCK CLEAR 42 19 39 N12 30.21R KENANSVILLE CLEAR 38 20 50 N6 30.24R KINSTON CLEAR 34 22 61 NW3 30.24R NEW BERN CLEAR 38 21 50 N9 30.23R RICHLANDS CLEAR 32 25 74 N7 30.22R ROCKY MOUNT CLEAR 36 13 38 NW9 30.24 WASHINGTON CLEAR 35 20 55 NW3 30.22R WHITEVILLE CLEAR 38 29 70 CALM 30.21R $$ AMZ130-135-150-152-154-156-158-170-250-252-270-ANZ085-086-088-633-658-670-290400- MARINE OBSERVATIONS STATION/POSITION TIME TEMP WIND PRES WAVE SWELL AIR SEA DIR/SP/G HT/PER HT/PER (UTC) (F) (DEG/KT/KT) (MB) (FT/S) (FT/S) CHESAPEAKE LIGHT 0200 35 330/ 21/ 24 1022.7 64 E VA BEACH 0250 38 56 330/ 21/ 29 1021.6 6/ 6 DUCK 0200 39 42 320/ 12/ 15 1021.1 2 E DUCK 0211 41 N/A 4/ 6 2/11 10 NE DUCK NOT AVBL OREGON INLET 0200 37 46 340/ 7/ 12 1022.0 HATTERAS CG 0200 42 54 340/ 17/ 19 1022.5 CAPE LOOKOUT 0300 43 360/ 11/ 13 1022.3 BEAUFORT LAB 0200 43 55 10/ 8/ 12 1021.2 27 SE WRIGHTSVLE 0200 48 65 10/ 17/ 19 1023.1 5 SE WRIGHTSVLE 0200 48 56 10/ 19/ 21 1021.9 225 S CAPE HAT 0250 58 68 320/ 16/ 21 1019.8 10/ 8 8/ 8 41 SE CHARLESTON 0250 56 68 330/ 17/ 23 1021.8 4/ 4 2/ 9 $$

USA.gov is the U.S. government's official web portal to all federal, state and local government web resources and services.